Météo par heure à Allmend

Ce jour, 15 Mai, Samedi

Heure Température Précipitation Vent Pression Humidité
00:00 +2°C° 0 mm 2 m/s 678 mmHg 93%
01:00 +2°C° 0 mm 2 m/s 678 mmHg 93%
02:00 +2°C° 0 mm 2 m/s 678 mmHg 92%
03:00 +2°C° 0 mm 2 m/s 677 mmHg 92%
04:00 +1°C° 0 mm 2 m/s 677 mmHg 91%
05:00 +4°C° 0 mm 1 m/s 677 mmHg 88%
06:00 +5°C° 0 mm 1 m/s 677 mmHg 86%
07:00 +5°C° 0 mm 0 m/s 677 mmHg 83%
08:00 +7°C° 0 mm 1 m/s 677 mmHg 77%
09:00 +8°C° 0 mm 1 m/s 677 mmHg 72%
10:00 +10°C° 0 mm 1 m/s 676 mmHg 66%
11:00 +9°C° 0.2 mm 2 m/s 676 mmHg 67%
12:00 +9°C° 0.2 mm 2 m/s 676 mmHg 69%
13:00 +9°C° 0.2 mm 3 m/s 676 mmHg 70%
14:00 +8°C° 0.9 mm 2 m/s 676 mmHg 79%
15:00 +7°C° 0.9 mm 2 m/s 676 mmHg 87%
16:00 +8°C° 0.9 mm 1 m/s 676 mmHg 96%
17:00 +8°C° 0.9 mm 1 m/s 676 mmHg 96%
18:00 +7°C° 0.9 mm 1 m/s 676 mmHg 97%
19:00 +7°C° 0.9 mm 1 m/s 676 mmHg 97%
20:00 +7°C° 0.5 mm 1 m/s 676 mmHg 97%
21:00 +7°C° 0.5 mm 1 m/s 676 mmHg 97%
22:00 +7°C° 0.5 mm 1 m/s 676 mmHg 97%
23:00 +7°C° 0.9 mm 1 m/s 676 mmHg 97%

Demain, 16 Mai, Dimanche

Heure Température Précipitation Vent Pression Humidité
00:00 +7°C° 0.9 mm 1 m/s 676 mmHg 97%
01:00 +7°C° 0.9 mm 1 m/s 676 mmHg 97%
02:00 +7°C° 0.5 mm 1 m/s 676 mmHg 97%
03:00 +7°C° 0.5 mm 1 m/s 676 mmHg 98%
04:00 +7°C° 0.5 mm 1 m/s 676 mmHg 98%
05:00 +7°C° 0.3 mm 1 m/s 675 mmHg 97%
06:00 +7°C° 0.3 mm 1 m/s 675 mmHg 96%
07:00 +8°C° 0.3 mm 1 m/s 675 mmHg 95%
08:00 +9°C° 0.2 mm 1 m/s 675 mmHg 93%
09:00 +10°C° 0.2 mm 1 m/s 675 mmHg 90%
10:00 +10°C° 0.2 mm 1 m/s 675 mmHg 87%
11:00 +10°C° 0.8 mm 1 m/s 675 mmHg 88%
12:00 +10°C° 0.8 mm 1 m/s 675 mmHg 90%
13:00 +10°C° 0.8 mm 1 m/s 674 mmHg 92%
14:00 +9°C° 2.2 mm 2 m/s 675 mmHg 93%
15:00 +9°C° 2.2 mm 2 m/s 675 mmHg 94%
16:00 +9°C° 2.2 mm 2 m/s 675 mmHg 96%
17:00 +8°C° 1.2 mm 3 m/s 675 mmHg 95%
18:00 +8°C° 1.2 mm 3 m/s 675 mmHg 94%
19:00 +8°C° 1.2 mm 3 m/s 676 mmHg 93%
20:00 +7°C° 0.5 mm 3 m/s 676 mmHg 94%
21:00 +7°C° 0.5 mm 2 m/s 676 mmHg 94%
22:00 +6°C° 0.5 mm 2 m/s 676 mmHg 95%
23:00 +6°C° 0.8 mm 2 m/s 676 mmHg 95%

Après-demain, 17 Mai, Lundi

Heure Température Précipitation Vent Pression Humidité
00:00 +6°C° 0.8 mm 2 m/s 676 mmHg 96%
01:00 +6°C° 0.8 mm 2 m/s 676 mmHg 96%
02:00 +5°C° 0.7 mm 2 m/s 677 mmHg 96%
03:00 +5°C° 0.7 mm 2 m/s 677 mmHg 96%
04:00 +5°C° 0.7 mm 2 m/s 677 mmHg 96%
05:00 +5°C° 0.1 mm 2 m/s 677 mmHg 95%
06:00 +5°C° 0.1 mm 2 m/s 677 mmHg 93%
07:00 +6°C° 0.1 mm 2 m/s 677 mmHg 92%
08:00 +7°C° 0.1 mm 3 m/s 678 mmHg 83%
09:00 +8°C° 0.1 mm 3 m/s 678 mmHg 73%
10:00 +10°C° 0.1 mm 4 m/s 678 mmHg 64%
11:00 +10°C° 0.3 mm 4 m/s 678 mmHg 64%
12:00 +10°C° 0.3 mm 4 m/s 678 mmHg 64%
13:00 +11°C° 0.3 mm 4 m/s 678 mmHg 64%
14:00 +11°C° 0.4 mm 4 m/s 678 mmHg 65%
15:00 +11°C° 0.4 mm 4 m/s 678 mmHg 66%
16:00 +11°C° 0.4 mm 4 m/s 678 mmHg 67%
17:00 +10°C° 0.3 mm 4 m/s 679 mmHg 73%
18:00 +9°C° 0.3 mm 3 m/s 679 mmHg 79%
19:00 +8°C° 0.3 mm 3 m/s 679 mmHg 86%
20:00 +7°C° 0.4 mm 2 m/s 679 mmHg 89%
21:00 +6°C° 0.4 mm 2 m/s 679 mmHg 92%
22:00 +6°C° 0.4 mm 2 m/s 680 mmHg 96%
23:00 +6°C° 1.1 mm 2 m/s 680 mmHg 96%

18 Mai, Mardi

Heure Température Précipitation Vent Pression Humidité
00:00 +5°C° 1.1 mm 2 m/s 680 mmHg 97%
01:00 +5°C° 1.1 mm 2 m/s 680 mmHg 97%
02:00 +5°C° 0.3 mm 2 m/s 680 mmHg 97%
03:00 +5°C° 0.3 mm 2 m/s 680 mmHg 97%
04:00 +5°C° 0.3 mm 2 m/s 680 mmHg 97%
05:00 +5°C° 0.2 mm 2 m/s 680 mmHg 95%
06:00 +5°C° 0.2 mm 2 m/s 680 mmHg 94%
07:00 +4°C° 0.2 mm 3 m/s 681 mmHg 93%
08:00 +5°C° 0.4 mm 3 m/s 681 mmHg 90%
09:00 +5°C° 0.4 mm 3 m/s 681 mmHg 86%
10:00 +6°C° 0.4 mm 4 m/s 682 mmHg 83%
11:00 +6°C° 0.5 mm 4 m/s 682 mmHg 81%
12:00 +6°C° 0.5 mm 4 m/s 682 mmHg 79%
13:00 +7°C° 0.5 mm 4 m/s 682 mmHg 77%
14:00 +7°C° 0.4 mm 4 m/s 682 mmHg 75%
15:00 +8°C° 0.4 mm 3 m/s 682 mmHg 73%
16:00 +8°C° 0.4 mm 3 m/s 682 mmHg 71%
17:00 +8°C° 0.4 mm 3 m/s 682 mmHg 78%
18:00 +7°C° 0.4 mm 2 m/s 682 mmHg 85%
19:00 +6°C° 0.4 mm 2 m/s 682 mmHg 92%
20:00 +5°C° 0.2 mm 2 m/s 683 mmHg 92%
21:00 +4°C° 0.2 mm 2 m/s 683 mmHg 93%
22:00 +4°C° 0.2 mm 2 m/s 683 mmHg 93%
23:00 +4°C° 0.6 mm 2 m/s 683 mmHg 94%

19 Mai, Mercredi

Heure Température Précipitation Vent Pression Humidité
00:00 +4°C° 0.6 mm 2 m/s 683 mmHg 95%
01:00 +3°C° 0.6 mm 2 m/s 683 mmHg 96%
02:00 +3°C° 1.6 mm 2 m/s 683 mmHg 97%
03:00 +3°C° 1.6 mm 2 m/s 683 mmHg 97%
04:00 +3°C° 1.6 mm 2 m/s 683 mmHg 98%
05:00 +3°C° 1.4 mm 2 m/s 683 mmHg 98%
06:00 +3°C° 1.4 mm 2 m/s 684 mmHg 98%
07:00 +4°C° 1.4 mm 2 m/s 684 mmHg 98%
08:00 +4°C° 1 mm 2 m/s 684 mmHg 98%
09:00 +4°C° 1 mm 2 m/s 685 mmHg 98%
10:00 +4°C° 1 mm 2 m/s 685 mmHg 98%
11:00 +5°C° 0.5 mm 2 m/s 685 mmHg 97%
12:00 +5°C° 0.5 mm 2 m/s 686 mmHg 97%
13:00 +6°C° 0.5 mm 2 m/s 686 mmHg 96%
14:00 +6°C° 0.3 mm 2 m/s 686 mmHg 94%
15:00 +7°C° 0.3 mm 2 m/s 686 mmHg 92%
16:00 +7°C° 0.3 mm 2 m/s 686 mmHg 89%
17:00 +7°C° 0.3 mm 2 m/s 686 mmHg 90%
18:00 +6°C° 0.3 mm 2 m/s 686 mmHg 90%
19:00 +6°C° 0.3 mm 2 m/s 686 mmHg 91%
20:00 +6°C° 0.2 mm 1 m/s 686 mmHg 92%
21:00 +5°C° 0.2 mm 1 m/s 687 mmHg 93%
22:00 +5°C° 0.2 mm 1 m/s 687 mmHg 94%
23:00 +5°C° 0.3 mm 1 m/s 687 mmHg 95%

20 Mai, Jeudi

Heure Température Précipitation Vent Pression Humidité
00:00 +4°C° 0.3 mm 1 m/s 688 mmHg 96%
01:00 +4°C° 0.3 mm 1 m/s 688 mmHg 97%
02:00 +3°C° 0 mm 2 m/s 688 mmHg 96%
03:00 +2°C° 0 mm 2 m/s 688 mmHg 94%
04:00 +1°C° 0 mm 2 m/s 687 mmHg 93%
05:00 +3°C° 0 mm 1 m/s 687 mmHg 91%
06:00 +5°C° 0 mm 1 m/s 687 mmHg 88%
07:00 +5°C° 0 mm 0 m/s 687 mmHg 86%
08:00 +8°C° 0 mm 1 m/s 687 mmHg 79%
09:00 +10°C° 0 mm 1 m/s 687 mmHg 73%
10:00 +11°C° 0 mm 1 m/s 687 mmHg 66%
11:00 +12°C° 0 mm 1 m/s 687 mmHg 64%
12:00 +13°C° 0 mm 1 m/s 687 mmHg 61%
13:00 +14°C° 0 mm 2 m/s 687 mmHg 59%
14:00 +14°C° 0 mm 2 m/s 687 mmHg 58%
15:00 +15°C° 0 mm 2 m/s 687 mmHg 58%
16:00 +15°C° 0 mm 2 m/s 687 mmHg 57%
17:00 +14°C° 0 mm 1 m/s 687 mmHg 65%
18:00 +13°C° 0 mm 1 m/s 686 mmHg 73%
19:00 +12°C° 0 mm 1 m/s 686 mmHg 80%
20:00 +10°C° 0 mm 1 m/s 686 mmHg 81%
21:00 +8°C° 0 mm 2 m/s 686 mmHg 82%
22:00 +7°C° 0 mm 2 m/s 686 mmHg 82%
23:00 +7°C° 0 mm 2 m/s 686 mmHg 81%
Voir plus

Nous avons besoin de votre consentement

Meteoprog et ses fournisseurs de services peuvent stocker et accéder à des données personnelles telles que des cookies, des identifiants d'appareils ou d'autres technologies similaires sur votre appareil et traiter ces données pour personnaliser le contenu et les publicités, ainsi que pour fournir des fonctionnalités de médias sociaux et analyser le trafic.

  • Stocker et/ou accéder à des informations sur votre appareil

    Des cookies, des identifiants d'appareils ou d'autres informations peuvent être stockés ou accessibles sur votre appareil aux fins indiquées ci-dessus.

  • Annonces et contenus personnalisés, mesure des annonces et des contenus, connaissance de l'audience et développement de produits

    Les annonces et le contenu peuvent être personnalisés en fonction d'un profil. D'autres données peuvent être ajoutées pour mieux personnaliser les annonces et le contenu. Les performances des publicités et du contenu peuvent être mesurées. Il est possible d'obtenir des informations sur le public qui a vu les publicités et le contenu. Ces données peuvent être utilisées pour développer ou améliorer l'expérience de l'utilisateur, les systèmes et les logiciels.

En cliquant sur "J'accepte", vous autorisez l'utilisation de cookies, des identifiants d'appareils, des balises web ou d'autres technologies similaires. Vos paramètres peuvent être modifiés dans le navigateur de votre appareil.

Dans certains cas, des intérêts légitimes peuvent être invoqués plutôt qu'un consentement. Vous pouvez en savoir plus à ce sujet dans notre Politique de confidentialité et de cookies.